{"data":{"norad_id":30797,"epoch":"2026-09-19T00:12:56.659104Z","epoch_age_seconds":143305,"freshness":"FRESH","line1":"1 30797U 07004D   26262.00898911 -.00000481  00000+0  00000+0 0  9993","line2":"2 30797   8.2353  74.8982 8304765 246.4572   9.5625  0.87844503 41898","mean_motion":0.87844503,"eccentricity":0.8304765,"inclination_deg":8.2353,"raan_deg":74.8982,"arg_perigee_deg":246.4572,"mean_anomaly_deg":9.5625,"bstar":0,"rev_number":4189,"period_min":1639.2602278141,"perigee_km":1428.9441130485,"apogee_km":77920.963189821,"semimajor_km":46053.090651435,"source":"CELESTRAK","updated_at":"2026-09-20T09:00:13.649733Z"}}